www.pogodaiklimat.ru

Погода и климат >> Архив погоды >> Италия >> Дезенцано


ПОГОДА в Дезенцано

  • Прогноз погоды в Дезенцано
  • Монитор погоды в Дезенцано

АРХИВ ПОГОДЫ в Дезенцано

Время (UTC), дата Ветер
(напр.,м/с)
 
Видим.   Явления Облачность Т
(С)
Тd
(С)
f
(%)
Тe
(С)
Тes
(С)
Комфортность P
(гПа)
Po
(гПа)
Тmin
(С)
Tmax
(С)
R
(мм)
R24
(мм)
S
(см)
10 15.01 СЗ 5 н/о н/о +9.3 +1.6 59 +6 +6 1018.7 1010.6
11 15.01 СЗ 5 н/о н/о +9.9 +2.6 60 +7 +7 1018.2 1010.1
12 15.01 СЗ 3 н/о н/о +11.0 +2.2 55 +9 +9 1017.7 1009.7
13 15.01 С 1 н/о н/о +11.4 +3.8 60 +11 +11 1017.4 1009.4
14 15.01 В 1 н/о н/о +11.1 +2.6 56 +12 +12 1017.2 1009.2
15 15.01 СЗ 3 н/о н/о +11.0 +2.2 55 +9 +9 1017.7 1009.7
16 15.01 ЮЗ 2 н/о н/о +9.9 -0.7 48 +9 +9 1017.7 1009.6
17 15.01 штиль 0 н/о н/о +7.7 -1.6 52 +7 +7 1018.1 1010.0
18 15.01 штиль 0 н/о н/о +6.2 -2.0 56 +6 +6 1018.8 1010.6 +12.0
19 15.01 штиль 0 н/о н/о +4.4 -3.2 58 +4 +4 1019.2 1011.0
20 15.01 штиль 0 н/о н/о +3.4 -3.7 60 +3 +3 1019.6 1011.3
21 15.01 штиль 0 н/о н/о +2.8 -4.1 60 +2 +2 1020.1 1011.8
22 15.01 штиль 0 н/о н/о +2.2 -3.2 67 +2 +2 1020.4 1012.1
23 15.01 штиль 0 н/о н/о +1.6 -2.4 75 +1 +1 1020.3 1012.0
00 16.01 штиль 0 н/о н/о +1.4 -2.1 77 +1 +1 1020.1 1011.8
01 16.01 штиль 0 н/о н/о +1.2 -2.8 75 0 0 1020.0 1011.7
02 16.01 штиль 0 н/о н/о +1.2 -3.5 71 0 0 1020.1 1011.8
03 16.01 штиль 0 н/о н/о +1.3 -4.0 68 +1 +1 1020.1 1011.8
04 16.01 штиль 0 н/о н/о +0.6 -4.1 71 -0 -0 1020.0 1011.6
05 16.01 штиль 0 н/о н/о 0.0 -4.7 71 -1 -1 1019.8 1011.4
06 16.01 Ю 1 н/о н/о -0.1 -4.2 74 -0 -0 1019.9 1011.5 -0.3 701
07 16.01 штиль 0 н/о н/о -0.1 -3.5 78 -1 -1 1019.9 1011.5
08 16.01 штиль 0 н/о н/о +0.7 -3.1 76 -0 -0 1020.1 1011.8
09 16.01 штиль 0 н/о н/о +4.5 -1.8 64 +4 +4 1020.4 1012.2
10 16.01 штиль 0 н/о н/о +6.9 +0.7 65 +6 +6 1020.5 1012.3
11 16.01 штиль 0 н/о н/о +7.1 +0.2 61 +7 +7 1020.0 1011.8
12 16.01 штиль 0 н/о н/о +9.0 +1.3 58 +9 +9 1019.1 1011.0
13 16.01 З 1 н/о н/о +11.4 +3.1 57 +11 +11 1018.1 1010.1
14 16.01 Ю 2 н/о н/о +11.9 +3.1 55 +11 +11 1017.4 1009.4
15 16.01 Ю 2 н/о н/о +10.5 +3.2 61 +9 +9 1017.5 1009.4
16 16.01 Ю 3 н/о н/о +9.9 +3.3 63 +8 +8 1017.5 1009.4
17 16.01 Ю 1 н/о н/о +9.6 +3.9 68 +9 +9 1017.8 1009.7
18 16.01 Ю 2 н/о н/о +8.3 +2.7 68 +7 +7 1017.9 1009.8 +12.4
19 16.01 Ю 1 н/о н/о +7.6 +2.4 70 +8 +8 1018.0 1009.9
20 16.01 ЮЗ 2 н/о н/о +8.9 +4.5 74 +8 +8 1017.8 1009.7
21 16.01 Ю 1 н/о н/о +9.2 +4.0 70 +9 +9 1018.2 1010.1
22 16.01 ЮВ 1 н/о н/о +8.4 +4.7 78 +8 +8 1018.3 1010.2
23 16.01 Ю 1 н/о н/о +6.9 +2.9 76 +7 +7 1018.3 1010.1
00 17.01 штиль 0 н/о н/о +6.8 +3.0 77 +6 +6 1017.9 1009.8
01 17.01 штиль 0 н/о н/о +6.4 +3.2 80 +6 +6 1017.3 1009.1
02 17.01 штиль 0 н/о н/о +6.1 +2.7 79 +5 +5 1017.1 1008.9
03 17.01 штиль 0 н/о н/о +6.0 +2.4 78 +5 +5 1016.7 1008.5
04 17.01 штиль 0 н/о н/о +6.1 +1.4 72 +5 +5 1016.2 1008.0
05 17.01 штиль 0 н/о н/о +5.7 +0.8 71 +5 +5 1015.9 1007.7
06 17.01 штиль 0 н/о н/о +5.3 +1.0 74 +5 +5 1015.7 1007.5 +5.2 0
07 17.01 штиль 0 н/о н/о +5.4 +1.3 75 +5 +5 1015.4 1007.2
08 17.01 штиль 0 н/о н/о +5.6 +1.8 77 +5 +5 1015.4 1007.2
09 17.01 штиль 0 н/о н/о +6.4 +3.0 79 +6 +6 1015.6 1007.5
10 17.01 штиль 0 н/о н/о +6.8 +3.5 79 +6 +6 1016.0 1007.9
11 17.01 С 1 н/о н/о +7.1 +4.7 85 +7 +7 1015.2 1007.1
12 17.01 С 2 н/о н/о +7.2 +4.6 84 +5 +5 1014.1 1006.0
13 17.01 СЗ 2 н/о н/о +7.5 +5.3 86 +6 +6 1013.6 1005.5
14 17.01 штиль 0 н/о н/о +7.3 +5.6 89 +6 +6 1012.8 1004.7
15 17.01 штиль 0 н/о н/о +7.5 +6.1 91 +7 +7 1012.5 1004.4
16 17.01 СЗ 1 н/о н/о +7.6 +6.7 94 +8 +8 1012.0 1003.9
17 17.01 штиль 0 н/о н/о +7.3 +6.5 95 +6 +6 1011.7 1003.6
18 17.01 штиль 0 н/о н/о +7.2 +6.6 96 +6 +6 1011.7 1003.6 +7.7
19 17.01 штиль 0 н/о н/о +7.1 +6.6 97 +6 +6 1011.6 1003.5
20 17.01 штиль 0 н/о н/о +6.8 +6.4 97 +6 +6 1011.0 1002.9
21 17.01 штиль 0 н/о н/о +6.7 +6.4 98 +6 +6 1010.9 1002.8
22 17.01 штиль 0 н/о н/о +6.8 +6.7 99 +6 +6 1010.8 1002.7
23 17.01 штиль 0 н/о н/о +6.6 +6.6 100 +5 +5 1010.5 1002.4
00 18.01 штиль 0 н/о н/о +6.5 +6.5 100 +5 +5 1009.9 1001.8
01 18.01 Ю 2 н/о н/о +6.1 +6.1 100 +4 +4 1009.7 1001.6
02 18.01 ЮЗ 2 н/о н/о +5.9 +5.9 100 +3 +3 1009.6 1001.5
03 18.01 Ю 1 н/о н/о +5.9 +5.8 99 +4 +4 1009.5 1001.4
04 18.01 Ю 1 н/о н/о +5.5 +5.4 99 +4 +4 1009.2 1001.1
05 18.01 ЮЗ 1 н/о н/о +5.6 +5.6 100 +4 +4 1009.5 1001.4
06 18.01 ЮЗ 1 н/о н/о +5.2 +5.1 99 +4 +4 1009.3 1001.2 +5.1 202
07 18.01 ЮЗ 1 н/о н/о +5.1 +5.1 100 +4 +4 1009.8 1001.7
08 18.01 Ю 1 н/о н/о +4.6 +4.6 100 +4 +4 1010.7 1002.5
09 18.01 ЮЗ 1 н/о н/о +5.6 +5.6 100 +5 +5 1011.4 1003.3
10 18.01 СЗ 1 н/о н/о +7.1 +6.5 96 +6 +6 1012.1 1004.0
11 18.01 В 4 н/о н/о +6.3 +5.4 94 +3 +3 1012.6 1004.5
12 18.01 Ю 1 н/о н/о +8.5 +6.6 88 +9 +9 1012.7 1004.6
13 18.01 В 2 н/о н/о +8.8 +6.6 86 +7 +7 1012.9 1004.8
14 18.01 В 3 н/о н/о +8.9 +5.0 77 +6 +6 1013.0 1005.0
15 18.01 В 3 н/о н/о +8.0 +4.4 78 +5 +5 1013.9 1005.8
16 18.01 В 1 н/о н/о +7.1 +3.5 78 +6 +6 1014.7 1006.6
17 18.01 ЮВ 1 н/о н/о +6.6 +3.0 78 +7 +7 1015.2 1007.1
18 18.01 штиль 0 н/о н/о +6.2 +2.6 78 +5 +5 1015.7 1007.5 +9.0
19 18.01 В 4 н/о н/о +7.1 +0.2 61 +4 +4 1015.7 1007.6
20 18.01 В 3 н/о н/о +7.2 +0.8 64 +5 +5 1016.2 1008.1
21 18.01 СВ 3 н/о н/о +7.4 +1.0 64 +5 +5 1016.7 1008.6
22 18.01 В 5 н/о н/о +6.9 -0.9 58 +3 +3 1016.6 1008.5
23 18.01 В 2 н/о н/о +5.8 -1.7 59 +4 +4 1017.3 1009.1
00 19.01 В 2 н/о н/о +5.9 -1.6 59 +4 +4 1017.2 1009.0
01 19.01 В 1 н/о н/о +5.7 -2.3 56 +5 +5 1016.9 1008.7
02 19.01 В 2 н/о н/о +6.1 -2.1 56 +4 +4 1017.2 1009.0
03 19.01 В 2 н/о н/о +5.2 -2.0 60 +4 +4 1017.3 1009.1
04 19.01 В 2 н/о н/о +5.1 -2.8 57 +4 +4 1016.9 1008.7
05 19.01 ЮВ 1 н/о н/о +4.7 -3.7 54 +5 +5 1016.9 1008.7
06 19.01 штиль 0 н/о н/о +4.6 -3.8 54 +4 +4 1016.9 1008.7 +4.5 0
07 19.01 штиль 0 н/о н/о +4.5 -3.1 58 +4 +4 1017.2 1009.0
08 19.01 штиль 0 н/о н/о +4.2 -2.7 61 +4 +4 1017.6 1009.4
09 19.01 штиль 0 н/о н/о +4.6 -2.4 60 +4 +4 1017.8 1009.6
10 19.01 штиль 0 н/о н/о +5.8 -1.9 58 +5 +5 1018.4 1010.2
11 19.01 штиль 0 н/о н/о +6.2 -1.8 57 +6 +6 1018.0 1009.8
12 19.01 штиль 0 н/о н/о +6.6 -1.2 57 +6 +6 1017.3 1009.1
13 19.01 штиль 0 н/о н/о +7.6 0.0 59 +7 +7 1016.4 1008.3
14 19.01 штиль 0 н/о н/о +7.3 -0.8 56 +7 +7 1016.0 1007.9
15 19.01 штиль 0 н/о н/о +6.7 -0.8 59 +6 +6 1016.0 1007.9
16 19.01 штиль 0 н/о н/о +6.0 -1.0 61 +5 +5 1016.1 1007.9
17 19.01 штиль 0 н/о н/о +4.8 -1.7 63 +4 +4 1016.1 1007.9
18 19.01 штиль 0 н/о н/о +3.7 -2.4 64 +3 +3 1016.1 1007.9 +8.0
19 19.01 штиль 0 н/о н/о +3.5 -1.9 68 +3 +3 1016.1 1007.9
20 19.01 штиль 0 н/о н/о +3.4 -1.4 71 +3 +3 1016.0 1007.8
21 19.01 штиль 0 н/о н/о +3.0 -1.8 71 +2 +2 1016.3 1008.0
22 19.01 штиль 0 н/о н/о +2.7 -2.3 70 +2 +2 1016.3 1008.0
23 19.01 штиль 0 н/о н/о +1.8 -2.8 71 +1 +1 1016.2 1007.9
00 20.01 штиль 0 н/о н/о +0.8 -2.7 77 -0 -0 1015.9 1007.6
01 20.01 штиль 0 н/о н/о +0.1 -2.6 82 -1 -1 1015.7 1007.4
02 20.01 штиль 0 н/о н/о +0.1 -2.3 84 -1 -1 1015.7 1007.4
03 20.01 штиль 0 н/о н/о -0.4 -3.0 83 -2 -2 1015.5 1007.2
04 20.01 штиль 0 н/о н/о +0.5 -1.6 86 -1 -1 1015.2 1006.9
05 20.01 штиль 0 н/о н/о +1.2 -1.1 85 0 0 1014.7 1006.4
06 20.01 штиль 0 н/о н/о +1.4 -0.9 85 0 0 1014.8 1006.5 -0.4 0
07 20.01 Ю 1 н/о н/о +0.9 -1.9 82 +1 +1 1015.0 1006.7
08 20.01 штиль 0 н/о н/о +0.8 -1.6 84 -0 -0 1015.5 1007.2
09 20.01 штиль 0 н/о н/о +2.0 -0.6 83 +1 +1 1015.9 1007.6
10 20.01 штиль 0 н/о н/о +3.7 +0.2 78 +3 +3 1016.2 1008.0
11 20.01 штиль 0 н/о н/о +4.1 -0.4 72 +3 +3 1016.2 1008.0
12 20.01 штиль 0 н/о н/о +6.4 -0.7 60 +6 +6 1015.6 1007.5
13 20.01 штиль 0 н/о н/о +6.5 -1.7 56 +6 +6 1015.0 1006.9
14 20.01 Ю 1 н/о н/о +6.6 0.0 63 +7 +7 1014.7 1006.6
15 20.01 штиль 0 н/о н/о +5.9 -0.5 63 +5 +5 1015.0 1006.8
16 20.01 штиль 0 н/о н/о +5.2 -1.1 64 +5 +5 1015.1 1006.9
17 20.01 штиль 0 н/о н/о +3.4 -1.4 71 +3 +3 1015.4 1007.2
18 20.01 штиль 0 н/о н/о +2.2 -1.5 76 +1 +1 1016.1 1007.8 +7.9
19 20.01 штиль 0 н/о н/о +1.8 -0.8 83 +1 +1 1016.6 1008.3
20 20.01 штиль 0 н/о н/о +1.5 -0.8 85 0 0 1016.9 1008.6
21 20.01 штиль 0 н/о н/о +0.2 -1.9 86 -1 -1 1017.3 1009.0
22 20.01 штиль 0 н/о н/о -0.2 -1.8 89 -1 -1 1017.7 1009.3
23 20.01 штиль 0 н/о н/о -0.2 -1.5 91 -1 -1 1018.0 1009.6
00 21.01 штиль 0 н/о н/о -1.0 -2.5 90 -2 -2 1017.6 1009.2
01 21.01 штиль 0 н/о н/о -0.8 -2.0 92 -2 -2 1017.6 1009.2
02 21.01 штиль 0 н/о н/о -0.2 -1.1 94 -2 -2 1017.8 1009.4
03 21.01 штиль 0 н/о н/о +0.2 -1.1 91 -1 -1 1017.5 1009.2
04 21.01 СЗ 4 н/о н/о +2.2 +0.7 90 -3 -3 1017.2 1008.9
05 21.01 СЗ 3 н/о н/о +3.8 -1.0 71 +1 +1 1017.2 1009.0
06 21.01 СЗ 6 н/о н/о +4.8 -1.1 66 0 0 1017.4 1009.2 -1.0 311
07 21.01 С 5 н/о н/о +4.4 -2.3 62 -0 -0 1017.7 1009.5
08 21.01 С 5 н/о н/о +4.5 -1.8 64 0 0 1018.0 1009.8
09 21.01 С 2 н/о н/о +4.5 -3.4 56 +3 +3 1018.1 1009.9
10 21.01 СЗ 8 н/о н/о +5.4 -1.6 61 0 0 1018.3 1010.1
11 21.01 С 7 н/о н/о +5.7 -1.8 58 +1 +1 1018.1 1009.9
12 21.01 СВ 2 н/о н/о +5.8 -2.4 56 +4 +4 1017.7 1009.5
13 21.01 СВ 2 н/о н/о +6.2 -2.3 54 +5 +5 1017.2 1009.0
14 21.01 штиль 0 н/о н/о +6.4 -2.3 54 +6 +6 1016.5 1008.4
15 21.01 штиль 0 н/о н/о +6.0 -3.0 52 +6 +6 1016.4 1008.2
16 21.01 Ю 1 н/о н/о +5.8 -1.7 59 +6 +6 1016.3 1008.1
17 21.01 штиль 0 н/о н/о +4.4 -2.3 62 +4 +4 1016.1 1007.9
18 21.01 штиль 0 н/о н/о +4.1 -2.0 64 +4 +4 1016.3 1008.1 +6.5
19 21.01 штиль 0 н/о н/о +3.6 -1.8 68 +3 +3 1016.4 1008.2
20 21.01 штиль 0 н/о н/о +2.2 -2.6 71 +1 +1 1016.3 1008.0
21 21.01 ЮЗ 1 н/о н/о +0.9 -3.6 72 +1 +1 1016.2 1007.9
22 21.01 штиль 0 н/о н/о +0.7 -3.6 73 -0 -0 1016.2 1007.9
23 21.01 З 1 н/о н/о +0.6 -3.2 76 0 0 1016.1 1007.8
00 22.01 З 1 н/о н/о +0.4 -3.2 77 0 0 1015.7 1007.4
01 22.01 штиль 0 н/о н/о +0.4 -3.4 76 -1 -1 1015.0 1006.7
02 22.01 штиль 0 н/о н/о 0.0 -3.8 76 -1 -1 1014.6 1006.3
03 22.01 З 1 н/о н/о -0.5 -4.6 74 -1 -1 1013.8 1005.5
04 22.01 штиль 0 н/о н/о -0.8 -4.9 74 -2 -2 1013.2 1004.9
05 22.01 З 1 н/о н/о -1.0 -4.8 75 -1 -1 1012.7 1004.4
06 22.01 З 1 н/о н/о -1.1 -5.2 74 -3 -3 1012.2 1003.9 -1.2 602
07 22.01 штиль 0 н/о н/о -0.9 -4.8 75 -2 -2 1011.9 1003.6
08 22.01 СЗ 2 н/о н/о 0.0 -3.3 78 -4 -4 1011.8 1003.5
09 22.01 СЗ 4 н/о н/о +3.9 -1.7 67 -0 -0 1011.3 1003.1

 

Местоположение метеостанции Дезенцано (Италия): широта 45.67 долгота 10.55 высота над уровнем моря 64 м.

В архиве по умолчанию представлена погода в Дезенцано за последнюю неделю. Архивные данные за месяц целиком и за предыдущие месяцы, начиная с января 2011 года, Вы можете получить, выбрав интересующий диапазон дат из раскрывающегося списка и нажав кнопку "Ввод!".


*Определитесь, кто Вы:
робот инопланетянин человек

Внимание! Время в таблицах - всемирное. Для получения местного времени необходимо прибавить поправку, которая равна 1 ч.

Смотрите также архив погоды в соседних городах и на ближайших метеорологических станциях:

Погода в Брешиа (Италия) (35 км)
Погода в Тренто (Италия) (59 км)
Погода на Паганелле (Италия) (65 км)
Погода в Бергамо (Италия) (66 км)
Погода в Роббие (Швейцария) (84 км)
Погода на Пиц Корваче (Швейцария) (101 км)
Погода в Милане (Италия) (102 км)
Погода в Сегл-Марие (Швейцария) (104 км)
Погода в Санта-Мария-Валь-Мюстаире (Швейцария) (104 км)
Погода в Пьяченце (Италия) (105 км)

Пояснения к столбцам:

Ветер - указаны скорость ветра в м/с - средняя за 10 мин, порывы в срок и между сроками (в фигурных скобках) и направление, откуда дует ветер: С - северный, СВ - северо-восточный, В - восточный, ЮВ - юго-восточный, Ю - южный, ЮЗ - юго-западный, З - западный, СЗ - северо-западный.
Видимость - горизонтальная дальность видимости в метрах или километрах. При видимости от 1 до 10 км при отсутствии осадков обычно наблюдается дымка, при ухудшении видимости до 1 км и менее - туман. В сухую погоду видимость может ухудшаться дымом, пылью или мглою.
Явления - указаны атмосферные явления, наблюдавшиеся в срок или в последний час перед сроком; фигурными скобками обозначены явления, наблюдавшиеся между сроками (за 1-3 часа до срока); квадратными скобками обозначены град или гололедные отложения с указанием их диаметра в мм.
Облачность - указаны через наклонную черту общая и нижняя облачность в баллах и высота нижней границы облаков в метрах; квадратными скобками обозначены формы облаков: Ci - перистые, Cs - перисто-слоистые, Cc - перисто-кучевые, Ac - высококучевые, As - высокослоистые, Sc - слоисто-кучевые, Ns - слоисто-дождевые, Cu - кучевые, Cb - кучево-дождевые. Подробнее классификацию облаков см. в Атласе облаков (PDF).
T - Температура воздуха - температура, измеренная на высоте 2 м над землей.
Td - Температура точки росы - температура, при понижении до которой содержащийся в воздухе водяной пар достигнет насыщения.
f - Относительная влажность воздуха - влажноcть воздуха, измеренная на высоте 2 м над землей.
Te - Эффективная температура - температура, которую ощущает одетый по сезону человек в тени. Характеристика душности погоды. При расчете учитывается влияние влажности воздуха и скорости ветра на теплоощущения человека.
Tes - Эффективная температура на солнце - температура, которую ощущает человек, с поправкой на солнечный нагрев. Характеристика знойности погоды. Зависит от высоты солнца над горизонтом, облачности и скорости ветра. Ночью, в пасмурную погоду, а также при ветре 12 м/с и более поправка равна нулю.
P - Атмосферное давление - приведенное к уровню моря атмосферное давление.
Po - Атмосферное давление - измеренное на уровне метеостанции атмосферное давление.
Tmin - Минимальная температура - минимум температуры воздуха на высоте 2 м над землей.
Tmax - Максимальная температура - максимум температуры воздуха на высоте 2 м над землей.
R - Количество осадков - Количество выпавших осадков за период времени, мм. При наведении курсора мыши на число - период времени, за который выпало указанное количество осадков.
R24 - Количество осадков - Количество выпавших осадков за 24 часа, мм.
S - Снежный покров - Высота снежного покрова, см. При наведении курсора мыши на число - состояние снежного покрова и степень покрытия местности в баллах.